GFSGBSN_850_rhum_231.txt.gz
RH
98 80 42 36 38 28 40 54 57 58 55 53 49 48 40 42 37 35 31 28 24 19 12 13 29 36 28 38 37 28 24 20 18 23 25 24 25 20 24 21 18 21 19 16 15 13 13
94 97 71 51 42 40 32 33 55 59 59 57 53 52 46 41 40 38 32 27 26 19 13 13 25 38 31 47 29 26 22 22 24 24 22 22 22 20 20 20 23 19 19 17 15 14 14
99 99 99 86 62 51 44 34 30 45 60 59 57 55 52 46 41 39 36 29 25 22 15 12 24 38 34 31 28 27 24 23 24 24 25 21 22 20 20 23 19 18 23 21 18 16 16
98 99 98 100 93 70 58 47 40 30 35 54 57 55 54 51 44 40 37 31 24 23 14 12 25 40 35 34 31 30 30 29 27 24 24 24 24 24 23 20 21 25 25 30 19 18 16
74 98 94 99 95 93 84 71 57 42 34 30 44 55 52 54 45 41 37 32 25 22 16 21 34 50 47 33 29 26 27 28 27 26 25 25 23 23 24 31 35 30 38 30 24 17 17
66 45 92 98 93 92 97 87 77 66 50 38 32 41 51 50 50 43 37 31 25 31 36 42 41 44 31 30 29 28 27 28 27 23 24 25 24 29 34 37 46 35 30 27 28 19 17
65 75 41 76 96 99 99 96 94 78 60 51 45 31 42 48 51 44 36 30 46 43 40 45 45 44 36 28 26 26 26 29 26 24 29 23 34 39 33 31 27 26 27 28 24 18 20
33 52 77 71 70 99 99 98 98 96 82 61 50 38 37 49 49 48 39 38 62 64 68 20 19 31 39 36 29 27 29 30 26 33 26 29 36 28 24 24 24 26 28 29 24 20 23
67 44 32 62 69 67 98 100 100 99 92 90 53 52 40 42 50 46 38 41 58 56 69 44 17 16 32 34 27 24 29 29 29 33 30 31 25 20 22 24 25 26 29 29 29 28 26
71 72 48 30 23 49 50 71 95 97 96 98 76 65 55 43 50 57 45 55 57 55 84 40 33 30 33 28 28 23 26 28 30 31 28 26 20 22 24 26 24 32 24 28 32 39 49
46 62 72 49 27 20 33 44 63 88 87 96 100 75 64 52 55 74 72 54 42 57 68 23 33 31 30 27 21 22 24 28 33 32 25 31 26 27 29 26 24 32 31 33 35 42 45
73 59 61 67 50 26 21 36 43 49 85 96 100 96 76 61 56 86 67 50 46 78 87 32 31 33 32 28 24 20 27 25 21 28 29 32 25 26 26 23 25 28 33 36 38 42 60
76 72 52 63 70 44 24 26 47 39 80 96 100 100 84 56 48 71 51 48 77 99 24 22 37 32 32 32 28 25 27 29 37 43 47 36 33 27 24 34 31 32 44 72 72 63 60
85 77 70 48 67 66 42 33 52 49 87 99 99 100 91 62 68 72 46 79 94 43 32 20 26 31 37 29 28 28 34 38 34 36 48 50 51 31 26 30 34 34 38 66 88 93 67
74 84 78 72 49 63 60 33 49 59 66 98 100 99 100 73 86 77 55 88 65 44 27 25 24 32 36 30 33 32 36 38 34 36 49 49 39 29 31 32 33 38 48 38 59 62 74
73 70 72 81 69 48 64 58 36 58 59 83 99 99 98 72 77 76 84 66 57 37 28 28 38 38 42 37 43 42 41 34 36 32 33 43 57 41 38 31 30 37 37 59 75 99 96
78 72 71 71 77 64 47 66 45 49 59 64 95 100 97 75 90 89 93 81 59 44 41 43 49 59 45 43 43 47 42 36 34 39 37 42 60 60 47 44 49 53 57 57 64 80 100
81 75 70 73 72 73 54 52 64 40 52 64 84 97 93 86 89 89 93 74 55 51 43 45 47 56 55 52 47 61 47 46 45 38 49 59 71 82 70 45 46 54 61 63 96 95 91
83 79 76 71 68 70 66 45 60 56 44 94 94 88 87 80 96 94 76 70 60 57 50 48 48 52 50 56 58 49 55 60 54 53 57 55 73 90 66 66 57 62 61 63 75 89 95
82 77 75 69 67 66 67 60 44 63 47 83 81 100 99 100 76 77 82 78 77 60 61 54 53 51 60 62 54 56 56 70 63 72 63 52 72 71 76 61 64 76 66 65 78 97 86
77 76 77 72 68 67 69 66 50 49 53 73 83 93 86 100 95 81 72 69 77 77 58 49 59 58 74 90 66 73 56 74 72 73 76 79 99 88 81 75 75 81 80 80 83 75 97
82 80 80 79 79 76 78 76 67 47 59 85 83 87 83 82 79 87 88 83 77 72 64 68 66 58 62 82 78 70 58 63 78 84 88 92 100 95 100 78 77 84 77 75 74 75 76
79 81 81 81 82 83 82 83 79 56 64 97 80 82 71 78 89 93 85 79 74 66 59 56 54 58 71 64 61 75 76 80 79 86 96 100 100 100 86 73 93 94 68 59 68 66 74
88 83 83 82 84 85 85 86 88 68 59 68 81 89 92 92 87 81 69 70 75 66 69 56 52 64 63 64 66 68 72 76 80 83 84 99 100 100 95 93 93 52 30 32 52 47 50
90 90 87 84 87 88 86 87 90 78 53 60 77 80 97 89 82 82 73 70 73 65 72 59 74 72 69 67 96 97 94 83 86 92 92 85 96 99 97 89 77 62 41 36 39 40 46
94 93 89 87 87 91 90 96 88 82 66 62 79 90 95 97 90 77 82 77 84 80 77 97 91 86 74 99 100 100 98 80 89 95 92 97 98 98 99 98 90 49 28 22 26 54 48
100 94 89 89 89 93 93 96 94 85 72 67 86 83 98 98 91 80 84 86 81 75 82 100 100 95 88 100 100 99 95 71 93 96 99 99 99 97 96 98 94 42 30 30 66 71 38
98 99 89 90 84 89 92 93 96 90 78 69 90 86 77 94 95 96 92 91 87 88 95 100 98 100 100 100 99 99 99 89 94 73 87 86 96 97 98 98 95 34 39 57 59 44 40
98 99 87 86 84 87 89 90 93 92 84 73 94 93 86 90 98 99 100 99 95 91 99 94 83 93 90 98 100 98 100 99 98 92 74 99 91 97 86 93 46 35 41 35 35 36 32

GFSGBSN_850_rhum_237.txt.gz
RH
90 74 53 32 29 26 27 38 48 50 51 52 54 52 50 44 42 43 36 29 30 27 24 21 16 10 12 30 28 29 23 20 20 24 28 30 29 26 28 25 24 27 24 22 20 21 20
95 95 93 73 50 34 28 28 29 41 48 50 50 51 50 46 42 39 38 31 29 28 24 23 19 12 13 34 27 28 24 21 19 25 30 25 25 25 25 25 26 23 23 23 20 20 20
100 99 100 99 87 71 49 33 32 28 29 40 47 48 47 45 43 41 35 31 28 29 25 21 21 17 15 14 30 30 29 24 24 24 25 24 25 25 24 24 22 22 26 26 22 20 20
99 100 99 99 100 99 88 67 43 38 31 27 27 34 40 43 42 39 37 31 27 29 25 22 21 24 16 21 35 35 31 29 25 26 24 24 26 25 26 23 25 28 28 32 22 20 20
96 99 100 99 98 99 99 98 82 60 42 36 33 28 28 33 36 37 35 32 28 26 25 24 28 36 23 29 35 33 31 28 29 29 28 27 27 24 25 33 38 37 36 35 31 22 23
76 76 94 98 98 100 99 96 97 94 70 47 40 39 34 27 26 29 30 30 26 28 38 46 48 46 26 30 31 30 27 29 29 28 28 29 26 32 39 42 46 40 39 35 35 26 23
62 63 69 74 99 99 100 98 94 99 99 89 68 49 42 36 29 26 28 30 30 34 38 36 37 37 32 32 32 30 29 29 29 30 32 27 39 44 38 37 33 32 34 38 33 25 25
74 68 54 55 58 63 88 96 100 96 98 94 90 74 55 43 38 29 32 38 39 49 69 28 23 28 18 24 30 36 31 28 32 40 32 34 44 32 30 33 36 36 41 41 32 26 29
82 77 68 47 64 60 45 57 81 98 98 97 96 93 86 60 45 31 33 37 47 61 70 41 28 37 23 21 30 22 33 28 34 38 38 43 34 30 32 35 38 39 39 34 33 34 34
91 90 86 70 54 74 78 73 71 95 100 96 99 100 90 81 55 35 40 44 52 58 68 51 43 33 34 27 33 21 29 31 35 40 40 41 32 34 37 38 35 40 28 31 37 41 49
72 87 92 89 70 51 49 73 77 68 87 99 99 96 100 93 54 45 53 46 44 56 68 25 32 32 33 26 26 25 31 31 40 37 35 40 29 31 35 33 28 34 32 35 35 44 47
60 62 70 78 84 82 62 44 47 64 51 77 94 95 100 100 71 51 60 64 51 49 66 32 33 34 33 32 31 27 30 30 30 34 34 38 27 30 34 29 29 30 34 46 51 55 67
56 67 68 63 70 64 81 70 42 32 36 39 65 93 100 100 84 73 77 58 62 75 35 31 36 37 37 38 34 29 36 37 39 40 43 41 38 32 28 35 31 36 45 63 58 63 69
57 59 66 76 69 62 58 79 64 38 35 48 50 79 99 99 91 72 75 60 75 53 45 32 27 33 42 37 36 35 34 47 36 38 50 57 54 41 31 36 44 45 55 70 64 76 61
71 64 64 64 77 78 68 63 79 61 46 70 73 95 100 97 92 79 69 82 69 56 41 37 36 33 37 38 35 36 40 41 37 37 44 60 54 38 42 43 47 47 56 46 64 78 90
66 78 71 55 56 77 82 64 68 74 54 77 75 91 97 93 91 73 86 67 58 50 42 39 43 40 51 44 43 41 42 36 34 36 35 43 59 54 46 38 45 43 42 51 81 83 89
64 61 74 69 54 67 79 81 54 77 59 80 76 97 78 90 97 99 94 78 59 48 45 48 51 53 58 58 44 48 46 52 61 53 45 51 62 60 59 59 63 54 54 69 70 89 94
86 68 67 69 56 60 78 82 68 67 78 82 87 97 65 95 98 84 85 69 52 54 45 51 52 54 56 58 62 54 56 58 67 59 66 80 74 73 70 69 59 58 55 65 83 72 94
85 74 66 66 66 66 79 78 81 60 79 74 96 84 98 87 97 96 77 72 62 63 60 60 62 57 44 49 55 59 60 76 72 69 70 72 88 90 70 57 62 65 65 68 77 93 94
69 48 65 71 71 67 76 75 82 73 68 70 83 99 88 100 89 82 86 84 84 65 64 63 63 58 60 67 65 68 72 80 74 83 76 71 86 87 92 60 65 74 72 65 71 98 76
84 77 72 72 68 67 74 78 81 85 62 77 81 93 89 100 98 81 72 74 76 80 68 65 71 70 68 79 74 72 78 77 77 79 84 83 96 95 89 71 74 71 74 76 87 76 91
71 75 80 74 72 71 72 83 80 84 69 90 68 95 97 96 76 92 83 78 77 64 78 82 84 71 76 83 70 63 63 74 73 89 87 95 98 98 100 97 90 93 88 84 80 78 78
73 71 72 74 71 72 76 79 71 82 76 98 74 77 99 86 87 92 86 77 73 69 68 60 67 74 77 66 57 58 59 71 68 83 94 99 98 100 89 80 84 93 92 81 66 62 68
68 73 68 71 72 64 74 78 80 84 84 86 83 83 82 99 91 85 74 68 67 75 73 69 63 73 66 62 64 76 85 89 90 87 76 99 99 100 97 92 96 60 51 48 59 60 44
66 75 74 70 69 65 66 77 84 83 87 85 84 78 86 97 93 82 84 78 70 66 78 66 67 65 62 68 90 90 94 88 91 95 98 89 96 100 100 95 78 71 56 49 59 54 45
73 69 71 71 72 69 63 78 87 80 93 100 88 76 76 89 87 76 82 75 85 85 85 84 74 67 74 94 100 96 86 91 88 94 87 92 93 96 99 99 94 59 28 28 37 71 41
86 79 73 72 76 80 73 75 85 83 88 100 97 75 66 74 92 78 81 87 72 82 94 98 90 91 80 100 100 98 97 78 98 98 99 99 99 97 96 98 97 66 28 46 82 71 41
94 85 83 81 82 81 80 82 86 84 85 98 100 82 72 69 77 92 93 92 88 72 96 97 99 100 100 100 100 97 99 89 91 78 82 89 98 98 99 99 95 37 41 65 66 44 40
96 91 95 92 87 85 85 84 84 85 82 93 100 94 82 82 72 70 88 89 87 88 89 99 93 93 92 98 100 97 100 98 92 98 74 95 89 92 92 89 55 62 74 67 61 55 43

GFSGBSN_850_rhum_240.txt.gz
RH
83 89 69 33 29 31 32 37 46 50 50 50 49 46 44 42 39 37 34 32 29 27 23 22 21 18 14 11 25 28 26 19 21 22 26 31 31 28 29 27 26 28 26 24 21 22 22
85 81 89 84 62 39 31 33 30 32 42 48 48 48 44 42 40 36 34 31 28 26 24 22 21 20 20 20 21 28 25 20 20 25 29 26 26 26 26 26 27 25 25 25 22 21 22
94 79 89 84 94 88 69 46 37 34 30 29 36 42 44 41 38 36 33 32 28 26 25 22 22 20 21 15 24 29 30 24 25 26 26 25 26 26 25 26 24 24 28 27 24 22 23
100 99 94 100 94 97 95 84 72 48 38 34 30 27 30 34 33 35 31 28 27 26 24 22 21 23 22 15 30 29 33 29 24 26 26 24 26 26 26 26 27 30 29 34 23 24 22
98 100 95 100 98 100 96 98 98 86 65 46 39 35 30 26 25 24 24 23 24 23 24 26 28 35 28 25 30 34 34 31 30 30 29 29 28 27 27 35 38 40 42 34 32 24 24
78 94 98 99 98 100 100 96 88 99 99 80 53 44 40 36 31 26 23 22 22 24 35 40 47 43 27 30 34 32 31 29 31 30 28 30 29 35 42 41 42 39 41 36 37 29 26
74 69 88 96 96 98 100 99 94 95 100 100 78 67 57 47 39 32 25 24 27 31 39 29 27 32 23 23 30 31 30 29 31 30 34 29 39 46 41 39 33 37 38 41 36 30 29
68 82 72 77 86 82 98 100 99 95 97 99 99 97 89 63 45 39 29 32 41 56 75 32 29 28 22 25 28 26 32 31 32 41 34 35 45 37 34 35 37 38 42 44 37 31 33
76 75 72 63 64 58 65 75 96 100 99 100 98 100 93 86 78 56 30 38 47 57 73 43 38 35 28 26 33 26 29 30 35 42 41 46 36 33 34 36 40 42 45 44 41 34 37
86 85 78 72 66 51 82 84 58 68 88 88 94 96 100 99 86 71 34 51 58 61 77 45 42 36 34 29 31 24 21 30 36 40 42 42 34 34 36 42 40 47 38 37 35 43 52
96 95 94 90 74 57 70 80 67 63 49 60 89 98 100 100 85 63 52 61 49 53 77 32 31 34 36 30 29 28 28 32 41 39 40 41 32 33 36 36 36 39 30 37 38 46 48
79 79 81 93 95 80 69 60 67 82 73 82 96 100 99 100 100 80 64 75 57 53 64 31 35 35 35 33 32 31 33 33 33 37 36 39 31 30 33 30 30 30 37 44 56 59 69
70 65 64 64 80 89 87 79 67 51 58 62 66 94 95 100 98 92 71 74 73 74 35 31 34 38 39 39 37 32 39 40 42 45 43 41 39 33 30 35 33 37 46 66 67 64 66
73 74 63 69 61 62 75 74 81 57 41 44 51 61 97 99 100 91 84 77 80 54 47 35 31 34 37 39 38 36 42 48 39 41 51 53 51 42 40 40 43 48 62 81 66 66 58
67 68 66 56 67 74 64 63 74 74 51 51 69 57 76 93 100 80 86 94 73 57 43 40 32 35 37 38 39 36 41 46 42 38 49 57 58 42 47 46 50 50 58 54 66 80 90
67 70 59 57 63 70 84 74 61 75 67 54 72 76 90 74 99 92 97 83 58 50 46 42 42 40 54 52 43 40 41 38 36 39 34 41 58 60 50 41 47 45 47 54 80 87 93
76 68 66 74 63 57 67 84 72 67 78 59 80 87 72 86 100 98 97 85 61 48 45 51 51 49 58 57 54 50 44 56 70 56 43 51 64 60 58 59 62 60 58 75 76 86 98
78 78 78 60 78 71 48 69 84 66 85 66 81 97 70 78 99 96 90 70 53 50 50 50 52 53 58 60 55 59 59 76 74 67 65 77 80 83 69 71 68 61 56 62 95 87 98
76 78 78 74 45 68 64 54 84 80 77 70 89 78 89 93 92 93 76 73 62 60 59 58 58 55 48 49 50 55 70 76 74 79 71 72 90 97 83 67 62 74 68 66 77 88 84
70 82 85 81 73 52 64 52 81 88 71 76 80 95 80 100 88 83 87 76 78 63 62 61 63 58 60 64 63 57 71 76 75 81 74 72 88 85 80 70 77 92 90 80 73 96 74
85 81 80 82 80 64 62 59 80 87 75 85 81 96 85 100 95 92 83 80 82 90 70 64 71 64 65 77 73 74 72 74 78 80 82 80 90 85 82 82 92 92 90 79 85 73 82
77 81 77 68 72 58 59 65 81 88 87 90 71 98 97 97 79 87 86 93 79 72 80 79 77 69 75 79 67 62 66 71 73 83 84 94 90 97 95 89 89 96 84 83 74 73 73
78 77 75 70 80 71 68 67 74 85 97 97 82 77 95 89 90 94 82 76 78 71 64 60 71 76 77 74 60 56 58 61 67 76 87 98 99 100 85 80 82 91 86 84 70 70 72
70 76 79 72 84 78 76 67 68 85 89 93 85 81 88 98 95 92 78 77 73 72 70 67 63 73 62 62 66 72 81 88 93 89 80 99 97 100 94 94 95 58 56 66 70 62 63
80 75 72 75 72 69 76 70 67 83 93 100 83 80 81 98 96 84 82 77 74 69 78 68 66 64 63 66 88 93 89 87 89 94 98 88 98 99 98 76 66 67 57 63 64 63 42
66 72 74 74 71 69 70 70 70 76 91 100 98 78 72 83 86 81 85 76 92 89 90 85 71 67 75 97 98 90 85 88 90 94 90 94 92 98 100 99 95 58 31 30 42 72 42
78 71 68 70 68 72 67 68 64 71 83 98 100 94 75 75 84 74 82 84 72 84 97 99 85 88 82 100 99 88 78 64 88 98 96 94 99 95 98 99 95 72 28 46 93 74 39
95 89 79 70 67 71 71 66 64 62 74 95 100 98 82 71 69 83 81 81 82 75 95 98 96 99 100 100 99 89 98 84 90 82 91 95 98 98 99 100 94 40 43 64 68 51 48
100 99 92 86 73 67 74 72 66 61 67 92 100 100 96 75 67 60 89 87 84 82 73 88 74 89 84 98 97 96 100 95 91 93 73 89 81 89 90 88 64 80 78 76 56 54 55

GFSGBSN_850_rhum_246.txt.gz
RH
86 78 78 41 28 29 31 39 47 49 49 49 49 47 45 42 40 36 32 28 26 23 22 19 17 15 12 17 20 25 27 20 21 24 26 24 22 23 20 20 21 21 19 20 20 20 19
90 84 77 90 77 44 28 28 31 32 36 39 42 42 41 40 37 33 31 27 24 23 20 18 17 16 19 15 13 23 27 21 21 28 29 28 24 24 22 22 21 22 21 20 19 18 18
88 87 80 74 82 94 84 49 34 32 30 28 27 27 28 29 29 28 26 23 22 20 18 16 16 18 20 18 14 27 30 25 22 29 30 27 27 24 24 21 24 22 23 17 17 18 18
94 94 83 77 74 72 78 88 82 60 49 35 29 28 26 24 23 21 20 20 18 18 16 15 16 19 25 16 16 23 30 30 25 26 27 27 28 25 24 24 22 21 22 20 17 18 19
98 93 90 85 89 84 76 74 91 95 83 71 57 38 28 28 26 24 22 21 18 17 15 16 16 25 23 21 23 30 30 32 31 29 30 30 29 26 25 22 22 23 20 22 20 18 20
93 100 94 96 98 85 86 78 85 92 89 89 90 75 51 34 29 27 22 18 17 18 20 22 25 34 24 27 34 34 34 35 31 31 30 30 28 25 22 22 22 23 24 25 24 20 20
99 95 100 100 100 98 99 79 84 87 90 90 89 91 88 50 38 54 28 20 30 34 32 29 30 33 25 27 22 24 29 31 32 30 27 27 26 27 21 22 23 25 27 26 22 19 24
78 87 93 92 100 100 100 96 87 85 86 88 87 88 85 70 78 53 54 44 44 50 53 33 31 34 31 32 31 28 30 28 29 26 27 28 26 21 22 25 28 28 30 27 22 22 25
86 84 79 80 82 90 99 100 95 93 91 82 96 90 86 88 81 79 68 47 58 56 56 43 48 48 43 40 34 30 29 26 27 27 30 29 21 26 27 24 31 28 30 29 28 23 22
76 83 73 68 63 57 59 80 96 88 92 86 90 99 98 90 86 82 58 60 57 59 52 36 36 39 41 40 30 31 28 24 27 26 25 25 22 29 29 29 25 30 24 26 26 28 29
73 71 73 74 72 59 54 76 93 83 78 82 77 81 86 94 84 69 64 63 57 63 52 30 32 38 41 29 28 32 30 28 22 26 29 20 26 26 26 25 26 25 26 27 27 30 29
78 70 67 70 69 67 65 64 89 82 76 78 83 74 73 73 88 79 64 60 60 60 74 33 32 35 35 31 29 31 28 31 28 24 26 22 23 24 20 24 26 25 27 30 33 30 41
82 80 77 76 76 75 70 63 65 78 69 68 80 81 70 67 77 75 84 77 81 92 35 33 30 33 33 34 32 29 31 32 30 37 35 28 27 23 27 27 22 26 31 37 36 42 36
85 86 90 88 92 90 85 72 64 67 74 72 57 66 85 72 83 74 87 90 99 54 45 28 28 29 31 29 32 32 34 34 31 29 30 30 35 35 33 32 32 31 28 35 43 34 28
93 89 98 90 87 88 88 86 79 68 58 68 75 71 71 80 83 85 82 99 84 52 36 35 30 32 31 30 30 31 32 31 31 30 34 34 36 34 36 35 38 40 40 38 46 52 54
89 89 90 81 74 71 69 67 77 76 71 49 67 71 69 70 99 97 97 78 67 41 38 35 45 37 37 36 32 31 31 47 45 37 32 33 39 40 38 34 34 36 36 46 44 64 51
88 84 83 84 74 65 65 61 64 71 79 62 81 68 49 54 100 96 88 66 52 43 43 43 39 46 45 43 38 38 42 52 51 46 34 33 39 42 39 41 43 41 43 51 54 72 98
89 86 76 76 76 67 54 57 67 68 78 72 83 57 61 48 97 72 91 60 48 49 49 45 46 45 46 44 40 38 45 53 60 56 47 49 48 48 45 47 46 47 54 55 65 62 89
76 77 76 74 72 70 62 54 76 73 74 94 69 71 91 79 80 83 64 74 65 55 48 47 49 44 44 43 46 42 50 64 64 55 58 54 55 60 59 54 52 53 56 54 60 80 94
70 64 71 72 72 70 61 58 74 83 69 84 73 87 98 95 56 51 79 76 88 70 58 58 58 53 50 50 46 44 49 60 69 65 69 65 55 54 59 47 46 55 55 56 60 98 64
64 61 68 64 63 64 65 64 58 84 77 85 74 63 73 97 84 64 51 61 66 80 62 58 57 52 49 70 52 50 44 52 63 70 63 49 61 56 48 48 51 56 53 49 56 52 70
65 67 68 66 74 78 72 78 60 52 88 91 89 95 96 73 64 68 77 59 56 61 60 60 58 49 47 49 47 53 52 51 52 54 54 61 64 81 100 50 45 52 48 47 47 45 43
64 52 69 68 71 80 80 68 77 56 92 97 85 75 75 76 60 74 67 62 55 46 52 51 54 53 59 46 47 52 54 56 54 56 58 65 74 76 67 44 49 60 51 43 41 36 39
61 45 37 49 53 72 79 76 56 62 77 93 86 78 70 84 68 55 50 55 61 71 63 61 59 54 57 61 63 66 66 63 60 58 58 71 72 72 74 57 81 37 32 31 36 37 33
60 52 34 27 44 52 75 82 63 62 68 98 84 74 65 55 60 60 53 51 53 59 72 68 70 65 57 59 66 74 68 68 63 61 66 72 76 92 90 62 46 36 32 41 47 43 38
62 63 42 33 72 70 79 83 80 65 68 97 93 78 71 54 56 61 50 54 64 66 63 65 76 67 66 68 86 97 64 50 71 75 80 84 84 96 98 95 64 38 33 30 35 57 39
75 71 57 35 72 79 77 74 72 68 63 81 98 87 77 70 62 68 55 58 57 64 77 95 88 87 80 86 100 93 71 45 58 66 82 95 99 99 96 98 68 38 38 40 81 66 40
81 76 72 64 62 68 64 53 47 48 62 76 93 94 85 75 71 62 72 67 76 68 80 98 87 94 94 97 88 97 76 51 49 43 62 65 73 84 78 100 85 43 41 67 62 57 54
80 78 79 74 70 62 49 52 58 71 69 79 97 98 98 87 82 58 54 54 64 76 72 90 62 76 69 74 73 67 71 61 53 64 45 62 50 63 61 60 55 47 48 63 64 66 65

GFSGBSN_850_rhum_252.txt.gz
RH
30 41 50 56 56 54 52 50 50 50 48 46 44 42 40 38 35 32 30 28 24 22 18 16 13 11 9 18 16 22 12 16 17 20 25 20 19 17 17 16 14 15 14 13 13 13 13
21 19 28 37 40 41 42 45 47 47 46 45 43 41 38 36 33 31 27 25 22 20 18 15 13 11 20 15 17 22 17 20 21 23 23 20 20 20 19 16 16 15 15 15 14 14 14
42 22 20 24 26 29 27 29 30 30 30 31 32 32 31 29 27 24 22 20 19 17 16 14 13 13 28 18 19 21 21 25 23 22 22 22 22 21 20 18 17 17 18 15 14 13 13
82 56 36 58 78 81 65 46 39 30 24 22 22 24 22 21 20 18 17 16 15 14 13 12 13 14 26 20 17 20 23 26 25 25 25 24 24 23 22 20 18 17 16 20 13 13 14
89 87 73 92 86 82 84 85 89 84 63 46 34 29 24 19 15 13 11 10 11 11 11 11 15 44 22 23 19 20 21 22 21 26 24 23 23 22 19 20 19 15 18 16 16 12 13
95 97 90 85 100 76 78 68 70 72 72 80 77 74 63 56 45 26 14 9 10 9 14 14 20 31 23 15 23 23 23 23 21 22 22 23 22 22 20 20 22 21 21 19 18 14 16
90 100 100 98 89 83 78 78 67 72 67 66 74 83 77 73 68 35 20 20 30 40 33 24 20 26 21 18 21 20 22 25 24 22 23 20 24 26 18 16 17 18 19 18 15 12 14
100 100 95 92 91 93 85 78 77 77 72 74 80 83 77 72 73 47 53 43 56 62 47 32 28 25 22 22 24 20 18 19 21 25 19 21 24 19 15 17 19 18 20 19 15 13 18
82 93 100 99 98 97 91 85 80 83 78 74 75 78 75 74 71 65 66 69 70 64 55 28 21 23 23 26 27 25 21 17 18 20 21 22 16 16 18 19 19 16 16 17 21 18 16
87 86 85 91 98 99 94 86 82 82 82 81 72 73 71 76 77 80 71 68 46 50 54 16 29 27 31 34 30 25 24 21 20 20 18 19 16 16 19 18 18 19 14 13 15 22 25
87 84 90 91 95 100 100 100 96 91 84 80 77 73 74 77 86 85 90 50 69 79 38 20 28 34 28 29 22 22 22 23 24 22 21 24 18 20 22 19 15 17 15 19 18 19 22
83 78 74 74 85 99 100 99 99 100 94 84 78 70 72 88 80 90 67 48 78 62 52 22 25 26 28 26 22 22 23 22 20 20 20 20 18 16 16 16 15 14 18 21 20 23 34
79 72 68 62 63 64 70 79 87 100 100 93 86 73 72 75 79 72 66 65 79 67 23 25 26 24 25 26 21 21 23 24 26 28 27 19 18 15 13 21 18 17 23 33 34 32 35
71 73 75 72 67 64 62 60 64 73 75 73 78 77 76 95 76 76 73 87 91 42 35 26 22 23 27 23 24 23 25 26 22 24 24 23 33 21 18 23 30 28 24 36 49 41 33
72 76 78 74 69 65 63 60 59 61 68 63 70 77 84 74 78 79 75 100 88 70 36 34 29 29 27 24 24 24 24 22 23 22 27 29 30 24 24 24 23 35 34 33 38 30 37
78 80 78 75 71 68 64 64 61 57 59 60 64 86 87 87 81 87 96 92 82 62 50 41 44 33 31 25 26 24 23 24 26 27 26 28 33 25 26 23 20 26 24 34 38 60 58
85 83 78 78 75 72 71 69 67 64 54 54 80 82 72 88 82 98 86 70 61 52 53 49 47 42 35 29 26 26 27 40 30 27 26 24 28 33 30 28 28 36 46 58 35 45 67
86 86 83 82 80 79 78 74 69 66 58 68 75 63 79 72 90 75 69 48 52 45 50 44 43 46 43 39 37 30 39 65 44 34 30 45 43 47 34 32 31 31 33 32 72 50 61
87 91 88 83 83 86 90 83 74 70 57 63 58 61 84 82 77 82 55 47 46 42 46 47 51 45 42 51 44 36 42 46 40 41 58 48 46 62 42 43 39 38 35 33 34 49 64
85 88 87 83 87 94 95 81 76 62 53 63 49 82 82 83 59 45 55 51 48 43 45 48 44 44 54 55 46 51 39 46 43 45 46 55 36 47 70 51 51 53 45 37 35 84 66
93 85 84 84 87 92 81 72 66 58 57 76 64 50 66 97 74 50 40 41 52 57 48 45 47 44 42 57 54 45 40 41 42 44 40 41 54 44 40 37 43 41 37 35 38 37 54
98 92 92 96 87 87 84 78 59 53 57 93 70 58 48 45 56 50 49 44 46 42 48 49 51 38 36 40 40 43 43 43 48 47 44 44 59 48 100 47 43 41 32 30 30 31 28
100 100 94 86 82 82 80 69 61 54 65 79 70 57 54 47 51 56 53 40 41 37 46 42 42 46 47 37 38 48 45 40 42 42 47 50 59 63 71 43 37 52 44 33 31 25 24
98 98 93 86 82 77 74 69 61 53 62 66 60 66 55 67 45 46 40 37 35 36 42 48 44 48 44 48 49 49 46 44 41 40 38 48 54 70 87 55 82 42 26 22 25 24 23
100 99 98 87 82 80 79 72 65 58 62 77 68 66 57 53 42 35 39 37 34 33 36 51 50 57 56 55 79 65 57 49 45 38 37 40 56 91 96 68 44 34 26 28 30 29 29
99 100 98 82 76 75 74 73 66 61 63 80 89 87 70 52 45 31 30 34 43 45 48 37 60 65 63 59 74 87 60 48 44 45 46 72 71 86 93 82 65 29 28 27 27 43 41
92 91 88 77 67 65 67 74 69 63 57 76 92 89 87 65 47 45 36 40 31 37 51 48 64 69 64 77 88 73 65 36 56 68 75 87 93 100 96 94 67 32 27 33 57 55 43
82 74 72 68 66 70 67 70 75 72 65 62 86 88 95 78 66 57 53 68 66 46 61 53 74 76 78 90 79 67 65 49 45 37 65 71 81 86 89 100 89 33 31 51 56 51 49
99 97 80 72 74 76 72 79 82 74 71 72 88 76 74 91 86 72 69 76 85 81 91 65 54 59 64 78 76 68 66 47 47 63 31 71 56 72 63 65 38 38 41 50 54 55 56

GFSGBSN_850_rhum_255.txt.gz
RH
51 49 55 53 50 52 53 54 53 51 49 46 44 42 39 37 34 32 30 27 24 22 19 17 15 12 11 11 20 20 16 11 13 18 24 22 20 20 23 20 18 18 17 16 16 14 14
37 43 52 54 47 48 49 51 50 50 48 47 44 42 38 35 33 30 27 25 23 20 18 16 14 12 11 17 17 17 16 11 21 22 22 22 22 22 20 20 23 18 17 17 16 15 14
34 32 37 46 38 38 42 43 42 40 39 36 34 32 31 29 27 25 22 21 19 17 15 13 12 11 12 12 16 20 20 16 24 22 23 24 24 22 23 25 20 19 23 22 19 16 18
38 32 29 27 33 22 24 23 22 24 24 22 21 21 20 19 18 16 15 14 14 12 11 10 10 15 20 12 18 19 22 24 23 23 22 24 24 23 24 21 21 24 23 27 19 17 16
60 45 33 27 35 18 27 39 34 32 40 41 29 21 21 23 23 20 18 14 9 7 8 9 11 42 29 24 19 20 21 19 22 23 24 23 23 23 22 28 32 24 30 25 20 15 18
82 84 78 57 29 24 71 79 81 79 81 75 68 61 62 65 60 54 46 30 14 16 20 17 21 28 16 15 23 22 22 22 22 21 23 24 24 31 32 34 41 29 27 25 23 18 17
96 93 94 92 51 63 75 80 74 68 64 66 60 66 76 69 59 61 39 32 36 43 44 32 31 25 26 22 19 20 20 23 25 24 28 23 34 40 34 26 21 22 23 24 20 16 18
96 92 93 94 75 84 91 86 79 74 62 68 64 74 70 69 60 63 62 58 66 75 68 15 31 35 32 24 23 22 20 19 22 33 27 30 36 27 23 19 21 22 24 26 20 17 20
100 92 90 93 89 91 92 84 84 75 71 79 70 62 72 70 65 65 68 65 63 56 73 47 14 24 15 18 23 23 25 23 20 24 28 34 27 19 19 21 21 22 24 21 19 16 20
90 100 96 94 97 97 90 88 92 88 83 77 70 66 69 67 72 76 75 68 55 59 90 38 34 22 22 27 33 26 26 27 22 23 24 26 19 22 22 23 22 25 20 19 23 24 33
77 84 96 100 98 96 94 100 98 89 81 79 75 71 69 65 78 86 81 66 52 73 74 25 31 31 28 33 27 24 24 24 28 28 26 30 24 26 26 22 21 24 18 21 23 29 30
74 77 82 86 91 99 100 99 97 91 85 83 78 72 70 72 81 79 74 61 50 76 82 29 31 31 31 31 28 24 23 22 22 25 26 27 20 22 20 17 18 19 21 24 26 32 42
82 85 85 87 94 88 88 93 98 94 95 89 81 76 68 65 75 76 68 53 82 90 34 29 31 27 31 32 28 23 26 27 32 33 34 25 25 21 16 19 20 23 26 49 49 48 49
86 90 86 85 96 100 100 100 100 99 100 95 93 89 83 71 64 69 70 76 99 53 49 27 30 26 33 28 27 26 28 34 31 31 35 35 39 24 21 22 31 34 30 51 61 64 49
80 83 82 77 73 71 72 78 84 91 96 100 95 98 85 69 63 67 72 100 86 70 50 52 42 45 41 28 27 30 32 32 30 30 36 42 42 27 26 24 25 32 47 40 54 45 53
85 80 77 75 70 69 71 68 66 65 68 74 81 80 79 71 69 80 89 92 85 64 52 49 55 54 55 39 30 28 31 38 34 29 27 35 41 30 26 24 23 30 39 54 64 66 68
88 80 76 69 73 75 68 64 62 61 62 69 79 89 76 73 82 93 99 87 71 59 56 56 53 58 57 52 35 37 45 50 52 39 33 45 40 39 32 38 46 44 52 52 49 65 84
82 84 76 72 77 74 68 66 64 62 62 73 86 92 82 81 95 92 91 61 54 50 52 53 49 54 56 53 56 48 60 62 46 43 50 52 52 60 43 36 38 42 42 46 80 61 80
82 87 80 75 78 74 71 67 66 64 71 73 82 83 93 86 93 95 66 64 53 47 53 54 54 50 48 52 62 58 61 51 47 52 63 61 60 73 59 54 54 64 56 44 49 70 71
92 91 86 79 80 77 74 70 68 62 56 73 64 99 90 100 82 71 78 71 64 45 47 48 50 49 53 62 55 62 55 49 44 47 44 53 49 59 80 60 62 71 60 47 48 85 78
95 95 90 82 85 84 77 74 67 57 55 72 73 82 80 99 92 83 68 61 67 61 45 48 59 59 60 78 70 76 53 58 51 44 42 48 64 53 52 54 52 54 55 48 46 50 66
98 97 91 88 87 83 79 76 64 57 55 73 82 64 69 69 65 74 75 67 60 54 57 61 67 57 54 64 69 77 66 62 63 54 55 52 72 58 76 60 52 56 50 47 42 38 39
100 93 91 93 92 85 87 82 67 64 69 86 76 66 62 56 73 78 72 61 54 50 48 47 53 56 57 56 40 47 47 48 48 61 63 60 73 78 81 54 56 69 57 44 38 35 37
100 99 92 92 94 89 93 81 69 64 63 66 68 66 60 86 70 69 57 54 53 49 55 45 43 55 47 48 49 48 49 47 46 46 44 64 63 85 97 67 87 55 38 35 29 26 31
96 99 99 90 93 93 89 79 80 65 54 66 63 66 64 74 55 49 52 50 45 42 45 53 49 54 42 52 83 74 72 63 61 54 54 50 72 89 87 93 65 48 36 35 35 45 47
100 100 99 97 99 89 87 84 75 62 54 63 78 70 71 72 64 44 45 41 63 62 51 54 54 59 56 79 92 99 97 65 56 50 52 76 70 84 98 100 89 54 33 30 29 64 52
100 100 100 100 96 90 81 72 66 60 56 57 83 86 81 79 57 57 66 63 53 46 73 60 67 67 59 98 99 93 86 45 69 81 86 91 97 91 96 95 82 49 37 32 59 64 49
100 100 98 100 97 87 79 73 69 65 58 60 78 96 85 84 80 75 84 89 82 81 81 59 76 77 90 91 92 89 82 71 60 56 78 89 96 99 98 100 94 46 44 55 60 51 50
100 100 100 100 100 86 77 73 73 68 61 68 84 92 86 88 90 75 69 87 85 73 98 79 63 70 71 95 90 77 84 73 67 81 58 85 76 88 82 81 48 37 46 47 48 51 54

GFSGBSN_850_rhum_261.txt.gz
RH
42 31 47 54 56 56 55 54 53 52 48 45 42 40 38 36 33 31 29 26 24 22 21 19 17 16 14 12 11 12 13 14 12 13 22 22 24 24 27 27 24 23 23 20 19 18 19
47 28 42 56 57 57 56 56 53 52 50 48 44 40 38 34 32 29 26 24 22 20 18 17 16 15 13 13 11 12 14 15 17 18 20 24 25 25 24 25 27 24 24 23 17 16 18
47 49 45 53 58 60 55 55 53 50 49 45 42 38 36 31 26 22 20 18 16 15 14 13 12 11 12 11 12 13 14 19 21 22 19 20 25 24 24 26 24 24 27 25 19 20 19
86 41 68 51 56 60 57 47 46 47 46 44 39 33 27 21 15 13 12 11 11 13 12 10 8 9 10 11 12 13 15 19 22 23 24 24 24 24 23 24 25 30 28 31 22 20 20
44 41 35 51 47 63 57 53 43 45 41 35 27 21 16 19 18 17 20 16 16 19 15 11 9 11 12 15 18 17 18 20 18 20 23 24 24 26 26 34 39 34 32 28 23 18 20
44 51 46 44 44 56 69 72 51 44 28 21 19 22 38 40 42 42 37 32 26 25 26 29 28 24 9 13 17 20 20 22 23 22 22 25 26 38 42 41 44 36 28 25 24 20 21
100 96 75 55 73 57 64 55 51 37 27 24 33 59 59 56 56 52 43 38 32 33 41 36 36 21 17 23 25 24 20 22 23 26 30 27 37 41 36 35 32 33 28 26 24 19 16
94 100 92 66 72 50 53 56 42 40 38 51 62 68 59 57 54 54 56 56 70 75 75 31 28 26 15 18 30 22 24 22 26 34 31 37 43 35 31 33 36 34 26 28 24 18 17
80 100 100 96 94 52 69 51 43 50 52 62 79 68 63 63 55 56 58 67 68 72 70 46 37 34 26 19 21 28 22 24 25 30 30 35 31 28 28 30 30 26 27 25 25 23 21
85 94 99 100 100 84 49 54 42 56 64 85 78 78 71 65 59 63 64 72 72 66 83 53 46 34 29 18 22 12 13 18 29 34 32 29 24 25 26 28 28 29 23 24 24 31 34
83 88 100 96 100 74 54 55 56 56 75 90 90 86 79 73 66 67 66 72 64 72 68 26 34 32 22 30 29 27 29 21 34 32 28 32 30 29 30 27 24 28 22 22 24 30 33
84 83 90 96 100 100 76 98 66 72 94 95 95 90 87 77 71 75 77 71 54 66 74 41 32 33 34 33 31 26 24 25 27 34 31 36 26 26 29 24 21 20 22 30 39 38 42
83 91 86 94 98 95 96 84 100 86 100 99 95 93 93 78 73 72 73 62 79 85 44 51 47 37 35 37 35 30 28 27 31 34 33 34 30 26 24 26 22 28 37 50 51 60 53
84 85 92 94 99 97 96 99 100 98 99 100 96 96 93 81 74 66 72 73 83 59 59 51 49 48 39 36 35 31 32 35 30 32 44 44 47 35 22 27 28 35 39 56 58 69 64
84 80 82 93 96 85 99 97 99 100 100 100 99 98 95 83 65 73 71 88 79 71 59 64 52 52 50 44 42 30 34 38 33 34 38 48 44 30 28 27 27 35 47 39 59 59 64
85 81 76 74 78 85 90 100 100 100 100 100 99 100 92 85 67 74 80 81 73 66 61 61 62 57 62 60 47 37 38 54 43 41 33 38 42 35 28 28 34 31 38 46 63 63 67
90 86 80 74 82 88 87 91 97 100 100 99 100 100 95 93 73 79 95 82 72 64 58 63 66 62 62 62 57 61 62 56 56 47 45 44 44 44 36 46 49 49 53 61 60 69 77
91 86 83 79 86 96 90 86 94 100 99 100 99 98 95 91 87 92 97 67 63 64 62 64 62 60 60 56 58 62 67 64 52 53 57 56 58 59 52 51 48 45 48 57 82 65 87
97 86 85 84 91 100 92 99 100 86 100 92 95 92 93 95 98 99 77 67 62 66 68 74 70 61 53 55 58 60 61 52 46 51 52 48 62 69 66 60 48 54 57 57 66 75 80
100 83 84 86 91 98 99 100 100 96 99 95 83 99 99 99 89 73 79 79 76 62 57 60 65 56 59 63 59 61 61 60 51 49 48 50 61 60 73 57 58 58 57 55 62 85 75
100 95 94 86 94 99 97 86 82 75 77 84 70 83 82 98 98 84 71 74 80 74 61 58 66 65 67 72 71 71 64 59 53 52 50 55 50 58 59 55 53 59 61 58 64 62 68
100 100 89 91 94 100 91 79 74 71 73 71 69 81 93 88 76 80 82 76 80 73 70 70 68 67 67 72 69 79 72 70 61 56 56 62 68 62 75 63 58 64 62 64 62 62 62
95 100 97 86 95 99 95 85 77 72 71 85 69 67 72 83 91 90 80 77 76 68 61 55 63 70 73 66 54 50 51 55 52 61 70 66 78 78 73 73 58 68 58 52 56 51 52
95 97 100 88 84 99 96 81 80 70 65 69 71 71 72 93 93 86 71 72 70 72 70 55 55 65 51 50 52 57 61 59 61 60 60 75 75 83 86 71 87 54 46 47 54 50 49
85 98 100 97 82 92 90 79 78 69 69 67 69 70 65 88 79 78 70 72 68 66 66 58 52 52 48 52 80 77 78 66 62 66 67 66 83 94 87 92 72 53 42 40 46 47 53
78 99 98 97 88 85 96 87 77 71 72 70 68 70 64 65 79 70 72 69 83 80 69 56 50 46 54 78 90 91 95 81 80 70 74 71 72 82 97 92 83 55 46 44 38 66 53
83 98 97 98 94 93 95 89 79 77 79 73 71 71 67 77 97 79 72 75 68 68 81 62 71 73 62 94 96 97 96 69 77 78 84 90 96 86 96 87 80 55 36 38 61 64 54
98 98 99 96 98 95 98 94 83 78 77 77 74 75 74 80 87 88 82 83 85 75 83 73 83 80 92 85 84 97 90 82 69 68 84 88 98 99 92 91 81 47 53 60 54 41 43
99 98 98 89 92 89 97 96 90 84 79 75 76 84 77 82 81 89 83 87 80 81 82 95 77 86 82 92 94 92 92 84 77 81 73 79 77 86 81 79 53 48 42 41 46 44 43